When you browse on this site, cookies collect data to enhance your experience and personalize the content and advertising you see.
Visit our Privacy Policy to learn more. By continuing to use the site, you agree to this use of cookies and data.
  • In France
  • List of Countries
  • For 7 days
  • Water Temperature
  • Weather Map
  • Weather Widgets
  • user-avatar
    Login

    Hourly Weather Abbevillers

    Today, 14 October, Monday

    Time Temperature Precipitation Wind Pressure Humidity
    00:00 +13°C° 0 mm 1 mps 713 mmHg 84%
    01:00 +13°C° 0 mm 1 mps 713 mmHg 86%
    02:00 +13°C° 0 mm 1 mps 713 mmHg 88%
    03:00 +12°C° 0 mm 1 mps 712 mmHg 90%
    04:00 +12°C° 0 mm 1 mps 712 mmHg 91%
    05:00 +12°C° 0 mm 1 mps 712 mmHg 91%
    06:00 +12°C° 0 mm 1 mps 712 mmHg 92%
    07:00 +14°C° 0 mm 1 mps 712 mmHg 86%
    08:00 +16°C° 0 mm 1 mps 712 mmHg 80%
    09:00 +19°C° 0 mm 1 mps 712 mmHg 74%
    10:00 +21°C° 0 mm 1 mps 712 mmHg 69%
    11:00 +22°C° 0 mm 1 mps 712 mmHg 64%
    12:00 +23°C° 0 mm 1 mps 712 mmHg 59%
    13:00 +23°C° 0 mm 1 mps 712 mmHg 62%
    14:00 +23°C° 0 mm 1 mps 711 mmHg 65%
    15:00 +23°C° 0 mm 1 mps 710 mmHg 69%
    16:00 +20°C° 0 mm 1 mps 710 mmHg 72%
    17:00 +18°C° 0 mm 1 mps 710 mmHg 75%
    18:00 +15°C° 0 mm 1 mps 710 mmHg 78%
    19:00 +15°C° 0 mm 1 mps 710 mmHg 78%
    20:00 +15°C° 0 mm 1 mps 710 mmHg 78%
    21:00 +13°C° 0 mm 0 mps 710 mmHg 78%
    22:00 +14°C° 0 mm 1 mps 710 mmHg 80%
    23:00 +14°C° 0 mm 1 mps 710 mmHg 82%

    Tomorrow, 15 October, Tuesday

    Time Temperature Precipitation Wind Pressure Humidity
    00:00 +13°C° 0 mm 1 mps 709 mmHg 84%
    01:00 +13°C° 0 mm 1 mps 709 mmHg 85%
    02:00 +13°C° 0 mm 1 mps 708 mmHg 86%
    03:00 +12°C° 0 mm 1 mps 707 mmHg 87%
    04:00 +12°C° 0 mm 2 mps 707 mmHg 86%
    05:00 +12°C° 0 mm 2 mps 706 mmHg 84%
    06:00 +10°C° 0 mm 2 mps 706 mmHg 83%
    07:00 +13°C° 0 mm 2 mps 706 mmHg 79%
    08:00 +14°C° 0 mm 2 mps 706 mmHg 75%
    09:00 +16°C° 0 mm 1 mps 706 mmHg 70%
    10:00 +14°C° 0 mm 3 mps 706 mmHg 74%
    11:00 +14°C° 0 mm 5 mps 706 mmHg 77%
    12:00 +14°C° 0 mm 6 mps 707 mmHg 80%
    13:00 +12°C° 1.5 mm 5 mps 707 mmHg 84%
    14:00 +10°C° 1.5 mm 5 mps 708 mmHg 89%
    15:00 +8°C° 1.5 mm 4 mps 708 mmHg 93%
    16:00 +8°C° 1.4 mm 4 mps 709 mmHg 94%
    17:00 +8°C° 1.4 mm 4 mps 710 mmHg 94%
    18:00 +8°C° 1.4 mm 4 mps 711 mmHg 94%
    19:00 +8°C° 0.1 mm 3 mps 712 mmHg 94%
    20:00 +8°C° 0.1 mm 3 mps 712 mmHg 93%
    21:00 +8°C° 0.1 mm 2 mps 713 mmHg 92%
    22:00 +8°C° 0 mm 2 mps 713 mmHg 92%
    23:00 +7°C° 0 mm 2 mps 713 mmHg 92%

    Day after tomorrow, 16 October, Wednesday

    Time Temperature Precipitation Wind Pressure Humidity
    00:00 +7°C° 0 mm 2 mps 713 mmHg 92%
    01:00 +6°C° 0 mm 2 mps 713 mmHg 92%
    02:00 +6°C° 0 mm 2 mps 713 mmHg 92%
    03:00 +6°C° 0 mm 2 mps 713 mmHg 92%
    04:00 +6°C° 0 mm 2 mps 713 mmHg 91%
    05:00 +5°C° 0 mm 2 mps 713 mmHg 90%
    06:00 +5°C° 0 mm 2 mps 712 mmHg 89%
    07:00 +7°C° 0 mm 2 mps 712 mmHg 83%
    08:00 +10°C° 0 mm 1 mps 712 mmHg 78%
    09:00 +12°C° 0 mm 1 mps 712 mmHg 72%
    10:00 +13°C° 0 mm 1 mps 712 mmHg 67%
    11:00 +15°C° 0 mm 1 mps 712 mmHg 61%
    12:00 +16°C° 0 mm 2 mps 712 mmHg 56%
    13:00 +16°C° 0 mm 1 mps 712 mmHg 59%
    14:00 +16°C° 0 mm 1 mps 712 mmHg 62%
    15:00 +16°C° 0 mm 1 mps 711 mmHg 65%
    16:00 +14°C° 0 mm 1 mps 711 mmHg 70%
    17:00 +12°C° 0 mm 1 mps 711 mmHg 76%
    18:00 +10°C° 0 mm 1 mps 711 mmHg 81%
    19:00 +10°C° 0 mm 1 mps 711 mmHg 78%
    20:00 +10°C° 0 mm 1 mps 712 mmHg 75%
    21:00 +10°C° 0 mm 1 mps 712 mmHg 72%
    22:00 +10°C° 0 mm 1 mps 712 mmHg 71%
    23:00 +10°C° 0 mm 1 mps 712 mmHg 71%

    17 October, Thursday

    Time Temperature Precipitation Wind Pressure Humidity
    00:00 +10°C° 0 mm 1 mps 712 mmHg 70%
    01:00 +10°C° 0 mm 1 mps 712 mmHg 70%
    02:00 +10°C° 0 mm 1 mps 712 mmHg 70%
    03:00 +10°C° 0 mm 1 mps 712 mmHg 71%
    04:00 +10°C° 0 mm 1 mps 712 mmHg 70%
    05:00 +10°C° 0 mm 1 mps 712 mmHg 70%
    06:00 +10°C° 0 mm 1 mps 712 mmHg 70%
    07:00 +11°C° 0 mm 1 mps 712 mmHg 70%
    08:00 +13°C° 0 mm 1 mps 713 mmHg 69%
    09:00 +14°C° 0 mm 1 mps 713 mmHg 69%
    10:00 +14°C° 0 mm 2 mps 713 mmHg 72%
    11:00 +14°C° 0 mm 2 mps 713 mmHg 75%
    12:00 +14°C° 0 mm 2 mps 713 mmHg 78%
    13:00 +14°C° 0 mm 1 mps 713 mmHg 79%
    14:00 +14°C° 0 mm 1 mps 713 mmHg 81%
    15:00 +13°C° 0 mm 0 mps 713 mmHg 83%
    16:00 +12°C° 0 mm 0 mps 713 mmHg 85%
    17:00 +11°C° 0 mm 0 mps 713 mmHg 87%
    18:00 +11°C° 0 mm 0 mps 713 mmHg 89%
    19:00 +12°C° 0.1 mm 1 mps 714 mmHg 89%
    20:00 +12°C° 0.1 mm 1 mps 714 mmHg 89%
    21:00 +12°C° 0.1 mm 1 mps 714 mmHg 88%
    22:00 +12°C° 0.7 mm 1 mps 714 mmHg 91%
    23:00 +12°C° 0.7 mm 1 mps 714 mmHg 93%

    18 October, Friday

    Time Temperature Precipitation Wind Pressure Humidity
    00:00 +12°C° 0.7 mm 1 mps 713 mmHg 95%
    01:00 +12°C° 0.6 mm 1 mps 714 mmHg 95%
    02:00 +12°C° 0.6 mm 1 mps 714 mmHg 96%
    03:00 +12°C° 0.6 mm 1 mps 714 mmHg 96%
    04:00 +12°C° 0.3 mm 1 mps 714 mmHg 96%
    05:00 +11°C° 0.3 mm 0 mps 714 mmHg 96%
    06:00 +11°C° 0.3 mm 0 mps 714 mmHg 96%
    07:00 +11°C° 0.7 mm 0 mps 714 mmHg 96%
    08:00 +12°C° 0.7 mm 1 mps 714 mmHg 96%
    09:00 +12°C° 0.7 mm 1 mps 714 mmHg 96%
    10:00 +13°C° 0.2 mm 1 mps 714 mmHg 93%
    11:00 +14°C° 0.2 mm 1 mps 714 mmHg 89%
    12:00 +15°C° 0.2 mm 1 mps 714 mmHg 86%
    13:00 +15°C° 0.4 mm 1 mps 714 mmHg 87%
    14:00 +15°C° 0.4 mm 1 mps 714 mmHg 88%
    15:00 +15°C° 0.4 mm 1 mps 713 mmHg 89%
    16:00 +13°C° 0.2 mm 0 mps 713 mmHg 90%
    17:00 +11°C° 0.2 mm 0 mps 713 mmHg 92%
    18:00 +10°C° 0.2 mm 0 mps 713 mmHg 93%
    19:00 +10°C° 0 mm 0 mps 713 mmHg 93%
    20:00 +9°C° 0 mm 0 mps 713 mmHg 93%
    21:00 +10°C° 0 mm 1 mps 713 mmHg 93%
    22:00 +10°C° 0 mm 1 mps 713 mmHg 93%
    23:00 +10°C° 0 mm 1 mps 713 mmHg 93%

    19 October, Saturday

    Time Temperature Precipitation Wind Pressure Humidity
    00:00 +10°C° 0 mm 1 mps 712 mmHg 92%
    01:00 +10°C° 0 mm 1 mps 712 mmHg 93%
    02:00 +10°C° 0 mm 1 mps 712 mmHg 93%
    03:00 +10°C° 0 mm 1 mps 711 mmHg 93%
    04:00 +10°C° 0.1 mm 1 mps 711 mmHg 93%
    05:00 +10°C° 0.1 mm 1 mps 711 mmHg 93%
    06:00 +11°C° 0.1 mm 1 mps 711 mmHg 93%
    07:00 +11°C° 0.4 mm 1 mps 711 mmHg 92%
    08:00 +12°C° 0.4 mm 1 mps 710 mmHg 91%
    09:00 +13°C° 0.4 mm 1 mps 710 mmHg 90%
    10:00 +13°C° 0.4 mm 1 mps 710 mmHg 90%
    11:00 +13°C° 0.4 mm 1 mps 710 mmHg 89%
    12:00 +14°C° 0.4 mm 2 mps 710 mmHg 89%
    13:00 +13°C° 0.6 mm 1 mps 709 mmHg 91%
    14:00 +13°C° 0.6 mm 1 mps 709 mmHg 92%
    15:00 +13°C° 0.6 mm 1 mps 709 mmHg 94%
    16:00 +12°C° 1.5 mm 1 mps 709 mmHg 95%
    17:00 +12°C° 1.5 mm 1 mps 709 mmHg 96%
    18:00 +12°C° 1.5 mm 1 mps 708 mmHg 98%
    19:00 +11°C° 2.3 mm 1 mps 708 mmHg 98%
    20:00 +11°C° 2.3 mm 1 mps 708 mmHg 98%
    21:00 +10°C° 2.3 mm 2 mps 708 mmHg 98%
    22:00 +10°C° 2.4 mm 2 mps 708 mmHg 98%
    23:00 +10°C° 2.4 mm 2 mps 707 mmHg 98%
    Show more